Location: Newark
(48.0000°N, 67.0000°E)
Time: 20:58:20
(UTC+00:00)

N. Korean satellite - Pass Details

Date: 02 February 2020
Orbit: 456 x 505 km, 97.2° (Epoch: 26 February)

Event Time Altitude Azimuth Distance (km) Brightness Sun altitude
Rises 02:15:35 0° 1° (N) 2,566 10.1 -7.7°
Reaches altitude 10° 02:17:53 10° 349° (NNW) 1,689 9.0 -7.3°
Maximum altitude 02:20:54 25° 292° (WNW) 1,023 7.6 -6.8°
Drops below altitude 10° 02:23:57 10° 236° (SW) 1,698 9.0 -6.4°
Sets 02:26:16 0° 223° (SW) 2,583 10.0 -6.0°
